Find Starlink 34546

NORAD ID: 64718 Int'l Des: 2025-142 Owner: SPXS Country: US Constellation: starlink operational
LEOCIRCULAR

リアルタイム位置

3D地球を読み込み中...

Starlink 34546について

説明を読み込み中...

次回通過

Passes for default location (London). Set your location on the main map for personalized predictions.

高度履歴

Loading altitude history...

軌道要素

1 64718U 25142Y 26105.06498427 .00002144 00000-0 18736-3 0 9993
2 64718 70.0017 222.5678 0003101 267.2316 92.8488 14.98335375 45104
Epoch: Apr 15, 2026 • Age: 10 hours

現在のステータス

高度 577.3 km
速度 7.57 km/s
衛星直下点 33.86°N, 138.05°W
打ち上げ日 Jun 28, 2025
運用期間 0.7 years
タイプ internet

技術仕様

分類 Payload
質量 575.00 kg
乾燥質量 530.00 kg
総質量 575.00 kg
長さ 0.30 m
直径 4.10 m
スパン 29.00 m
形状 Box + pan
製造者 SPXS
バスタイプ Starlink V2MO
フェーズステータス In Orbit
所有者/国 SPXS/US

Most Searched